Location: Cheyres
(46.8153°N, 6.7877°E)
Time: 04:23:17
(UTC+00:00)

Cosmos 773 Rocket - Pass Details

Date: 11 May 2021
Orbit: 745 x 777 km, 74.1° (Epoch: 18 June)

Event Time Altitude Azimuth Distance (km) Brightness Sun altitude
Rises 20:10:40 0° 338° (NNW) 3,269 8.5 -11.2°
Reaches altitude 10° 20:13:04 10° 339° (NNW) 2,337 7.6 -11.5°
Maximum altitude 20:18:24 82° 67° (ENE) 789 4.0 -12.2°
Enters shadow 20:22:41 16° 156° (SSE) 1,933 5.5 -12.7°
